Weather History for Taos, NM

Change the Weather History Date:

Monday, December 17, 2012

  Actual Average Record
Temperature  
Mean Temperature 19 °F -  
Max Temperature 33 °F 38 °F 53 °F (1998)
Min Temperature 5 °F 8 °F -4 °F (2007)
Degree Days  
Heating Degree Days 46    
Moisture  
Dew Point 14 °F    
Average Humidity 74    
Maximum Humidity 93    
Minimum Humidity 60    
Precipitation  
Precipitation 0.00 in - - ()
Sea Level Pressure  
Sea Level Pressure 30.00 in    
Wind  
Wind Speed 5 mph (South)    
Max Wind Speed 16 mph    
Max Gust Speed 17 mph    
Visibility 10 miles    
Events      
Averages and records for this station are not official NWS values.
T = Trace of Precipitation, MM = Missing Value Source: NWS Daily Summary

Daily Weather History Graph

Daily Weather History Graph

Search for Another Location

Airport:

Trip Planner

Search our weather history database for the weather conditions in past years. The results will help you decide how hot, cold, wet, or windy it might be!

Date:

Astronomy

Dec. 17, 2012 Rise Set
Actual Time 7:08 AM MST 4:49 PM MST
Civil Twilight 6:40 AM MST 5:18 PM MST
Nautical Twilight 6:07 AM MST 5:50 PM MST
Astronomical Twilight 5:36 AM MST 6:22 PM MST
Moon 10:25 AM MST (12/17) 10:06 PM MST (12/17)
Length of Visible Light 10h 38m
Length of Day
9h 40m
Waxing Crescent, 25% of the Moon is Illuminated
Dec 17
Waxing Crescent
Dec 19
First Quarter
Dec 28
Full
Jan 4
Last Quarter
Jan 11
New

Hourly Weather History & Observations

Time (MST) Temp. Windchill Dew Point Humidity Pressure Visibility Wind Dir Wind Speed Gust Speed Precip Events Conditions
12:15 AM 10.4 °F - 8.6 °F 92% 30.03 in 10.0 mi Calm Calm - N/A   Clear
12:35 AM 14.0 °F 6.5 °F 10.4 °F 86% 30.03 in 10.0 mi SW 4.6 mph - N/A   Clear
12:55 AM 12.2 °F - 6.8 °F 79% 30.04 in 10.0 mi Calm Calm - N/A   Clear
1:15 AM 12.2 °F - 8.6 °F 85% 30.03 in 10.0 mi Calm Calm - N/A   Clear
1:35 AM 12.2 °F 6.1 °F 8.6 °F 85% 30.03 in 10.0 mi SW 3.5 mph - N/A   Clear
2:15 AM 10.4 °F - 8.6 °F 92% 30.03 in 10.0 mi Calm Calm - N/A   Clear
2:35 AM 12.2 °F - 8.6 °F 85% 30.03 in 10.0 mi Calm Calm - N/A   Clear
2:55 AM 10.4 °F - 5.0 °F 79% 30.03 in 10.0 mi Calm Calm - N/A   Clear
3:15 AM 15.8 °F - 12.2 °F 86% 30.01 in 10.0 mi Calm Calm - N/A   Mostly Cloudy
3:35 AM 14.0 °F - 10.4 °F 86% 30.00 in 10.0 mi Calm Calm - N/A   Scattered Clouds
3:55 AM 14.0 °F - 6.8 °F 73% 30.00 in 10.0 mi Calm Calm - N/A   Clear
4:15 AM 10.4 °F - -0.4 °F 62% 30.00 in 10.0 mi Calm Calm - N/A   Clear
4:35 AM 12.2 °F - 6.8 °F 79% 30.00 in 10.0 mi Calm Calm - N/A   Scattered Clouds
4:55 AM 12.2 °F - 6.8 °F 79% 29.99 in 10.0 mi Calm Calm - N/A   Mostly Cloudy
5:15 AM 15.8 °F 10.2 °F 8.6 °F 73% 30.00 in 10.0 mi SSE 3.5 mph - N/A   Mostly Cloudy
5:35 AM 12.2 °F 2.9 °F 6.8 °F 79% 30.01 in 10.0 mi East 5.8 mph - N/A   Mostly Cloudy
5:55 AM 12.2 °F 4.3 °F 6.8 °F 79% 30.01 in 10.0 mi ESE 4.6 mph - N/A   Scattered Clouds
6:15 AM 12.2 °F 1.7 °F 6.8 °F 79% 30.01 in 10.0 mi SE 6.9 mph - N/A   Partly Cloudy
6:35 AM 10.4 °F -2.4 °F 3.2 °F 73% 30.01 in 10.0 mi East 9.2 mph - N/A   Clear
6:55 AM 10.4 °F -0.4 °F 3.2 °F 73% 30.01 in 10.0 mi East 6.9 mph - N/A   Clear
7:15 AM 6.8 °F - 1.4 °F 79% 30.02 in 10.0 mi Calm Calm - N/A   Clear
7:35 AM 5.0 °F -5.6 °F 3.2 °F 92% 30.02 in 10.0 mi NNW 5.8 mph - N/A   Clear
7:55 AM 10.4 °F 4.0 °F 3.2 °F 73% 30.02 in 10.0 mi North 3.5 mph - N/A   Clear
8:15 AM 12.2 °F 2.9 °F 8.6 °F 85% 30.02 in 10.0 mi East 5.8 mph - N/A   Mostly Cloudy
8:35 AM 19.4 °F 10.4 °F 17.6 °F 93% 30.03 in 10.0 mi East 6.9 mph - N/A   Scattered Clouds
8:55 AM 21.2 °F 16.4 °F 15.8 °F 80% 30.03 in 10.0 mi East 3.5 mph - N/A   Clear
9:15 AM 24.8 °F 19.1 °F 15.8 °F 69% 30.03 in 10.0 mi SSE 4.6 mph - N/A   Partly Cloudy
9:35 AM 24.8 °F 16.1 °F 17.6 °F 74% 30.04 in 10.0 mi South 8.1 mph - N/A   Partly Cloudy
9:55 AM 26.6 °F 17.5 °F 17.6 °F 69% 30.04 in 10.0 mi SSW 9.2 mph - N/A   Partly Cloudy
10:15 AM 26.6 °F 16.8 °F 17.6 °F 69% 30.04 in 10.0 mi SSW 10.4 mph - N/A   Scattered Clouds
10:35 AM 26.6 °F 17.5 °F 17.6 °F 69% 30.05 in 10.0 mi SSW 9.2 mph - N/A   Overcast
10:55 AM 28.4 °F 18.5 °F 17.6 °F 64% 30.05 in 10.0 mi SW 11.5 mph - N/A   Overcast
11:15 AM 30.2 °F 19.8 °F 17.6 °F 60% 30.04 in 10.0 mi SSW 13.8 mph 17.3 mph N/A   Overcast
11:35 AM 30.2 °F 19.8 °F 19.4 °F 64% 30.02 in 10.0 mi SSW 13.8 mph - N/A   Mostly Cloudy
11:55 AM 30.2 °F 21.3 °F 19.4 °F 64% 30.01 in 10.0 mi SSW 10.4 mph - N/A   Overcast
12:15 PM 30.2 °F 19.8 °F 19.4 °F 64% 30.00 in 10.0 mi South 13.8 mph - N/A   Overcast
12:35 PM 30.2 °F 21.3 °F 19.4 °F 64% 29.99 in 10.0 mi SSE 10.4 mph - N/A   Mostly Cloudy
12:55 PM 32.0 °F 24.8 °F 19.4 °F 60% 29.99 in 10.0 mi SSW 8.1 mph - N/A   Mostly Cloudy
1:15 PM 32.0 °F 24.2 °F 19.4 °F 60% 29.98 in 10.0 mi South 9.2 mph - N/A   Scattered Clouds
1:35 PM 33.8 °F 27.0 °F 21.2 °F 60% 29.97 in 10.0 mi SSW 8.1 mph - N/A   Scattered Clouds
1:55 PM 33.8 °F 25.3 °F 21.2 °F 60% 29.96 in 10.0 mi SSW 11.5 mph 17.3 mph N/A   Scattered Clouds
2:15 PM 33.8 °F 23.5 °F 23.0 °F 65% 29.95 in 10.0 mi South 16.1 mph - N/A   Scattered Clouds
2:35 PM 33.8 °F 25.3 °F 21.2 °F 60% 29.95 in 10.0 mi SSW 11.5 mph - N/A   Partly Cloudy
2:55 PM 33.8 °F 25.8 °F 21.2 °F 60% 29.94 in 10.0 mi South 10.4 mph - N/A   Mostly Cloudy
5:35 PM 28.4 °F 18.0 °F 19.4 °F 69% 29.95 in 10.0 mi SSW 12.7 mph - N/A   Clear
5:55 PM 28.4 °F 17.5 °F 17.6 °F 64% 29.95 in 10.0 mi SSW 13.8 mph - N/A   Clear
6:15 PM 28.4 °F 18.0 °F 17.6 °F 64% 29.96 in 10.0 mi South 12.7 mph - N/A   Clear
6:35 PM 28.4 °F 18.5 °F 17.6 °F 64% 29.96 in 10.0 mi South 11.5 mph - N/A   Clear
6:55 PM 26.6 °F 16.8 °F 17.6 °F 69% 29.97 in 10.0 mi South 10.4 mph - N/A   Clear
7:15 PM 26.6 °F 16.2 °F 17.6 °F 69% 29.97 in 10.0 mi South 11.5 mph - N/A   Clear
7:35 PM 28.4 °F 19.1 °F 19.4 °F 69% 29.97 in 10.0 mi South 10.4 mph - N/A   Clear
7:55 PM 28.4 °F 20.4 °F 19.4 °F 69% 29.97 in 10.0 mi South 8.1 mph - N/A   Clear
8:15 PM 28.4 °F 20.4 °F 19.4 °F 69% 29.97 in 10.0 mi South 8.1 mph - N/A   Clear
8:35 PM 28.4 °F 22.2 °F 19.4 °F 69% 29.97 in 10.0 mi SSE 5.8 mph - N/A   Clear
8:55 PM 26.6 °F 20.0 °F 19.4 °F 74% 29.97 in 10.0 mi South 5.8 mph - N/A   Clear
9:15 PM 26.6 °F 20.0 °F 19.4 °F 74% 29.97 in 10.0 mi SSE 5.8 mph - N/A   Clear
9:35 PM 26.6 °F 20.0 °F 19.4 °F 74% 29.97 in 10.0 mi SSE 5.8 mph - N/A   Clear
9:55 PM 23.0 °F 13.9 °F 19.4 °F 86% 29.97 in 10.0 mi ESE 8.1 mph - N/A   Clear
10:15 PM 24.8 °F 20.5 °F 19.4 °F 80% 29.97 in 10.0 mi SE 3.5 mph - N/A   Partly Cloudy
10:35 PM 24.8 °F - 21.2 °F 86% 29.98 in 10.0 mi Calm Calm - N/A   Scattered Clouds
10:55 PM 24.8 °F 16.1 °F 19.4 °F 80% 29.98 in 10.0 mi SW 8.1 mph - N/A   Clear
11:15 PM 24.8 °F - 19.4 °F 80% 29.98 in 10.0 mi Calm Calm - N/A   Partly Cloudy
11:35 PM 24.8 °F 17.9 °F 19.4 °F 80% 29.98 in 10.0 mi SW 5.8 mph - N/A   Partly Cloudy
11:55 PM 24.8 °F 20.5 °F 17.6 °F 74% 29.99 in 10.0 mi South 3.5 mph - N/A   Partly Cloudy